Погода в Климовском

Россия / Вологодская область     59°20′50″N   38°01′01″E
темп.,
°C
ветер,
м/с
пор.,
м/с
влажн.,
%
обл.,
%
осадки,
мм/ч
давл.,
гПа
погр.,
м
17 мая, пн
пн1700:00+12з23935 0.0 101256
03:00+11зюз22910 0.0 101323
06:00+13юз01870 0.0 101558
09:00+18юв017188 0.0 1015424
12:00+21ю2354100 0.0 10161347
15:00+22ююв345037 0.0 10161426
18:00+21в355954 0.0 1014373
21:00+17в398299 0.0 1014172
18 мая, вт
вт1800:00+15в4138515 0.1 1014274
03:00+15вюв41090100 0.6 1013247
06:00+15вюв4109115 0.0 1013276
09:00+22юв511635 0.0 1012548
12:00+26ююв713475 0.0 10121736
15:00+27юв710475 0.0 10112411
18:00+25юв612570 0.0 1011847
21:00+20юв5137239 0.0 1011388
19 мая, ср
ср1900:00+18вюв412795 0.0 1011337
03:00+16вюв49855 0.0 1011218
06:00+17вюв512835 0.0 1011369
09:00+22юв6125985 0.0 1011784
12:00+26ююв7134743 0.0 10101299
15:00+28ююв714475 0.0 10102704
18:00+25юв814545 0.0 10091182
21:00+22юв716635 0.1 1009779
20 мая, чт
чт2000:00+20ююв6147969 2.2 1009501
03:00+18юв51389100 2.7 1010425
06:00+16юв3693100 0.6 1010234
09:00+21вюв57740 0.7 1009602
12:00+25юв69530 0.0 10081450
15:00+26юв6104556 0.0 10072428
18:00+21юв6126843 0.6 1006678
21:00+18юв51183100 1.3 1006470
21 мая, пт
пт2100:00+16вюв4109019 0.5 1005336
03:00+15юв5109389 0.9 1004548
06:00+15юв5109196 0.4 1003568
09:00+17ююв6107931 1.4 10031069
12:00+14ююв7117578 0.8 10031248
15:00+15ю8126358 0.9 10031582
18:00+14ю61166100 0.0 10031388
21:00+11ю487499 0.0 1002769